TimeCDT,TemperatureF,Dew PointF,Humidity,Sea Level PressureIn,VisibilityMPH,Wind Direction,Wind SpeedMPH,Gust SpeedMPH,PrecipitationIn,Events,Conditions,WindDirDegrees,DateUTC
12:13 AM,35.6,30.2,81,30.38,10.0,North,4.6,-,N/A,,Overcast,360,2013-05-03 05:13:00
12:33 AM,35.6,30.2,81,30.36,10.0,North,8.1,-,N/A,,Overcast,10,2013-05-03 05:33:00
12:53 AM,35.6,30.2,81,30.35,10.0,North,8.1,-,N/A,,Overcast,10,2013-05-03 05:53:00
1:13 AM,35.6,30.2,81,30.34,10.0,North,8.1,-,N/A,,Overcast,10,2013-05-03 06:13:00
1:33 AM,35.6,30.2,81,30.34,10.0,NNE,8.1,-,N/A,,Mostly Cloudy,20,2013-05-03 06:33:00
1:53 AM,35.6,30.2,81,30.34,7.0,NNE,8.1,-,N/A,Snow,Light Snow,30,2013-05-03 06:53:00
2:13 AM,35.6,30.2,81,30.33,4.0,NE,6.9,-,N/A,Snow,Light Snow,40,2013-05-03 07:13:00
2:33 AM,33.8,30.2,87,30.32,4.0,NE,8.1,-,N/A,Snow,Light Snow,40,2013-05-03 07:33:00
2:53 AM,33.8,30.2,87,30.31,2.0,NNE,8.1,-,N/A,Snow,Light Snow,30,2013-05-03 07:53:00
3:13 AM,33.8,30.2,87,30.29,2.5,NNE,6.9,-,N/A,Snow,Light Snow,20,2013-05-03 08:13:00
3:33 AM,33.8,30.2,87,30.28,2.5,NNE,9.2,-,N/A,Snow,Light Snow,20,2013-05-03 08:33:00
3:53 AM,33.8,30.2,87,30.28,2.0,North,11.5,-,N/A,Snow,Light Snow,10,2013-05-03 08:53:00
4:13 AM,33.8,30.2,87,30.28,3.0,North,13.8,-,N/A,Snow,Light Snow,10,2013-05-03 09:13:00
4:33 AM,33.8,30.2,87,30.28,5.0,North,11.5,18.4,N/A,Snow,Light Snow,10,2013-05-03 09:33:00
4:53 AM,33.8,30.2,87,30.27,10.0,North,10.4,18.4,N/A,,Scattered Clouds,360,2013-05-03 09:53:00
5:13 AM,33.8,30.2,87,30.25,10.0,North,15.0,-,N/A,,Mostly Cloudy,10,2013-05-03 10:13:00
5:33 AM,33.8,28.4,81,30.25,7.0,North,15.0,-,N/A,Snow,Light Snow,360,2013-05-03 10:33:00
5:53 AM,33.8,30.2,87,30.24,2.0,North,17.3,24.2,N/A,Snow,Light Snow,10,2013-05-03 10:53:00
6:13 AM,33.8,30.2,87,30.24,1.8,North,17.3,23.0,N/A,Snow,Light Snow,10,2013-05-03 11:13:00
6:33 AM,33.8,30.2,87,30.23,1.5,North,18.4,21.9,N/A,Snow,Light Snow,360,2013-05-03 11:33:00
6:53 AM,33.8,30.2,87,30.23,1.5,North,17.3,-,N/A,Snow,Light Snow,360,2013-05-03 11:53:00
7:13 AM,33.8,30.2,87,30.24,1.2,North,15.0,20.7,N/A,Snow,Light Snow,360,2013-05-03 12:13:00
7:33 AM,33.8,30.2,87,30.24,1.2,North,13.8,17.3,N/A,Snow,Light Snow,350,2013-05-03 12:33:00
7:53 AM,33.8,30.2,87,30.23,1.0,North,17.3,-,N/A,Snow,Light Snow,350,2013-05-03 12:53:00
8:13 AM,33.8,30.2,87,30.22,1.0,North,15.0,-,N/A,Snow,Light Snow,360,2013-05-03 13:13:00
8:33 AM,32.0,30.2,93,30.22,0.8,North,15.0,21.9,0.01,Snow,Light Snow,360,2013-05-03 13:33:00
8:52 AM,33.8,30.2,87,30.21,1.2,North,15.0,21.9,N/A,Snow,Light Snow,360,2013-05-03 13:52:00
9:13 AM,32.0,30.2,93,30.22,0.8,North,12.7,-,N/A,Snow,Light Snow,360,2013-05-03 14:13:00
9:33 AM,32.0,30.2,93,30.21,1.0,North,13.8,-,N/A,Snow,Light Snow,360,2013-05-03 14:33:00
9:52 AM,32.0,30.2,93,30.20,0.8,North,16.1,-,N/A,Snow,Light Snow,360,2013-05-03 14:52:00
10:12 AM,32.0,30.2,93,30.20,0.8,North,16.1,19.6,N/A,Snow,Light Snow,350,2013-05-03 15:12:00
10:33 AM,33.8,30.2,87,30.19,0.8,North,17.3,20.7,0.01,Snow,Light Snow,360,2013-05-03 15:33:00
10:53 AM,33.8,30.2,87,30.18,1.8,North,16.1,-,N/A,Snow,Light Snow,350,2013-05-03 15:53:00
11:13 AM,33.8,28.4,81,30.17,2.0,North,19.6,25.3,N/A,Snow,Light Snow,360,2013-05-03 16:13:00
11:33 AM,33.8,28.4,81,30.18,3.0,North,16.1,-,N/A,Snow,Light Snow,360,2013-05-03 16:33:00
11:53 AM,33.8,30.2,87,30.17,4.0,North,17.3,23.0,N/A,Snow,Light Snow,360,2013-05-03 16:53:00
12:13 PM,33.8,30.2,87,30.15,5.0,North,18.4,25.3,N/A,Snow,Light Snow,360,2013-05-03 17:13:00
12:33 PM,33.8,30.2,87,30.14,7.0,North,15.0,26.5,N/A,,Overcast,360,2013-05-03 17:33:00
12:53 PM,35.6,30.2,81,30.13,7.0,North,19.6,23.0,N/A,,Overcast,360,2013-05-03 17:53:00
1:13 PM,35.6,30.2,81,30.12,10.0,North,16.1,21.9,N/A,Snow,Light Snow,360,2013-05-03 18:13:00
1:33 PM,35.6,30.2,81,30.11,10.0,North,20.7,28.8,N/A,,Overcast,10,2013-05-03 18:33:00
1:53 PM,35.6,30.2,81,30.11,10.0,North,16.1,26.5,N/A,,Overcast,10,2013-05-03 18:53:00
2:13 PM,35.6,30.2,81,30.11,7.0,North,17.3,25.3,N/A,Rain,Light Rain,360,2013-05-03 19:13:00
2:33 PM,35.6,30.2,81,30.12,7.0,North,18.4,24.2,N/A,Rain,Light Rain,10,2013-05-03 19:33:00
2:53 PM,35.6,30.2,81,30.11,10.0,North,19.6,-,N/A,,Overcast,10,2013-05-03 19:53:00
3:13 PM,33.8,30.2,87,30.12,10.0,NNE,15.0,23.0,N/A,,Overcast,20,2013-05-03 20:13:00
3:33 PM,35.6,30.2,81,30.11,10.0,North,13.8,19.6,N/A,,Overcast,10,2013-05-03 20:33:00
3:53 PM,35.6,30.2,81,30.10,10.0,North,15.0,24.2,N/A,,Overcast,10,2013-05-03 20:53:00
4:13 PM,35.6,30.2,81,30.10,10.0,North,18.4,25.3,N/A,,Overcast,10,2013-05-03 21:13:00
4:33 PM,35.6,30.2,81,30.11,7.0,North,13.8,-,N/A,Snow,Light Snow,10,2013-05-03 21:33:00
4:53 PM,35.6,30.2,81,30.10,7.0,North,16.1,-,N/A,,Overcast,10,2013-05-03 21:53:00
5:13 PM,35.6,30.2,81,30.10,10.0,North,16.1,-,N/A,Snow,Light Snow,10,2013-05-03 22:13:00
5:33 PM,33.8,30.2,87,30.10,10.0,North,18.4,-,N/A,,Overcast,10,2013-05-03 22:33:00
5:53 PM,33.8,30.2,87,30.09,10.0,North,15.0,23.0,N/A,,Overcast,360,2013-05-03 22:53:00
6:13 PM,33.8,30.2,87,30.09,7.0,NNE,17.3,-,N/A,,Overcast,20,2013-05-03 23:13:00
6:33 PM,33.8,30.2,87,30.08,7.0,North,15.0,21.9,0.01,,Overcast,10,2013-05-03 23:33:00
6:53 PM,33.8,30.2,87,30.07,10.0,North,18.4,26.5,N/A,,Overcast,10,2013-05-03 23:53:00
7:13 PM,33.8,30.2,87,30.07,10.0,North,17.3,20.7,N/A,,Overcast,10,2013-05-04 00:13:00
7:33 PM,33.8,30.2,87,30.08,10.0,North,15.0,21.9,N/A,,Overcast,10,2013-05-04 00:33:00
7:53 PM,33.8,30.2,87,30.10,10.0,North,10.4,-,N/A,,Overcast,10,2013-05-04 00:53:00
8:13 PM,33.8,30.2,87,30.09,10.0,NNE,16.1,-,N/A,,Overcast,20,2013-05-04 01:13:00
8:33 PM,33.8,30.2,87,30.09,10.0,North,16.1,-,0.01,,Overcast,10,2013-05-04 01:33:00
8:53 PM,33.8,30.2,87,30.09,10.0,North,16.1,20.7,N/A,,Overcast,10,2013-05-04 01:53:00
9:13 PM,33.8,30.2,87,30.10,10.0,North,16.1,-,N/A,,Overcast,10,2013-05-04 02:13:00
9:33 PM,33.8,30.2,87,30.10,10.0,North,13.8,-,N/A,,Overcast,10,2013-05-04 02:33:00
9:53 PM,33.8,30.2,87,30.10,10.0,North,13.8,18.4,N/A,,Overcast,10,2013-05-04 02:53:00
10:13 PM,33.8,30.2,87,30.09,10.0,North,13.8,20.7,N/A,,Overcast,360,2013-05-04 03:13:00
10:33 PM,33.8,30.2,87,30.08,10.0,North,12.7,19.6,N/A,,Overcast,10,2013-05-04 03:33:00
10:53 PM,33.8,30.2,87,30.07,10.0,North,11.5,19.6,N/A,,Overcast,360,2013-05-04 03:53:00
11:13 PM,33.8,30.2,87,30.09,10.0,North,13.8,-,N/A,Snow,Light Snow,10,2013-05-04 04:13:00
11:33 PM,33.8,30.2,87,30.08,10.0,NNE,16.1,-,N/A,,Overcast,20,2013-05-04 04:33:00
11:53 PM,33.8,30.2,87,30.07,10.0,North,17.3,-,N/A,,Overcast,10,2013-05-04 04:53:00